Location: B?dargowo
(53.3916°N, 14.4413°E)
Time: 01:27:13
(UTC+00:00)

DMSP B5D2-2 - Pass Details

Date: 05 February 2023
Orbit: 788 x 805 km, 98.3° (Epoch: 20 March)

Event Time Altitude Azimuth Distance (km) Brightness Sun altitude
Rises 16:30:27 0° 18° (NNE) 3,334 6.9 -6.1°
Reaches altitude 10° 16:32:54 10° 24° (NNE) 2,397 6.2 -6.4°
Maximum altitude 16:38:01 48° 99° (E) 1,044 4.4 -7.1°
Drops below altitude 10° 16:43:05 10° 173° (S) 2,372 6.7 -7.9°
Sets 16:45:29 0° 179° (S) 3,295 7.5 -8.2°
